TimePDT,TemperatureF,Dew PointF,Humidity,Sea Level PressureIn,VisibilityMPH,Wind Direction,Wind SpeedMPH,Gust SpeedMPH,PrecipitationIn,Events,Conditions,WindDirDegrees,DateUTC
12:54 AM,53.1,46.9,80,29.96,10.0,Calm,Calm,-,N/A,,Clear,0,2011-10-23 07:54:00
1:54 AM,50.0,46.0,86,29.97,10.0,Calm,Calm,-,N/A,,Clear,0,2011-10-23 08:54:00
2:54 AM,50.0,46.0,86,29.96,10.0,NNE,3.5,-,N/A,,Clear,20,2011-10-23 09:54:00
3:54 AM,53.1,48.0,83,29.95,10.0,NNE,4.6,-,N/A,,Clear,20,2011-10-23 10:54:00
4:54 AM,46.9,44.1,90,29.95,10.0,Calm,Calm,-,N/A,,Clear,0,2011-10-23 11:54:00
5:54 AM,46.9,44.1,90,29.96,10.0,Calm,Calm,-,N/A,,Clear,0,2011-10-23 12:54:00
6:54 AM,51.1,48.0,89,29.95,10.0,North,5.8,-,N/A,,Clear,10,2011-10-23 13:54:00
7:54 AM,48.9,46.0,90,29.96,10.0,Calm,Calm,-,N/A,,Clear,0,2011-10-23 14:54:00
8:54 AM,57.9,51.1,78,29.97,10.0,Calm,Calm,-,N/A,,Scattered Clouds,0,2011-10-23 15:54:00
9:54 AM,64.9,54.0,68,29.98,10.0,WNW,3.5,-,N/A,,Scattered Clouds,300,2011-10-23 16:54:00
10:54 AM,75.0,51.1,43,29.97,10.0,East,4.6,-,N/A,,Scattered Clouds,90,2011-10-23 17:54:00
11:54 AM,81.0,48.9,33,29.95,10.0,Calm,Calm,-,N/A,,Scattered Clouds,0,2011-10-23 18:54:00
12:54 PM,84.0,48.0,28,29.93,10.0,ESE,12.7,-,N/A,,Clear,110,2011-10-23 19:54:00
1:54 PM,84.9,51.1,31,29.90,10.0,East,11.5,17.3,N/A,,Partly Cloudy,100,2011-10-23 20:54:00
2:54 PM,86.0,52.0,31,29.88,10.0,East,10.4,-,N/A,,Partly Cloudy,90,2011-10-23 21:54:00
3:54 PM,86.0,51.1,30,29.88,10.0,East,9.2,-,N/A,,Clear,100,2011-10-23 22:54:00
4:54 PM,84.0,51.1,32,29.87,10.0,East,9.2,-,N/A,,Clear,90,2011-10-23 23:54:00
5:54 PM,78.1,52.0,40,29.87,10.0,SE,5.8,-,N/A,,Clear,130,2011-10-24 00:54:00
6:54 PM,68.0,50.0,52,29.88,10.0,WNW,3.5,-,N/A,,Clear,290,2011-10-24 01:54:00
7:54 PM,61.0,51.1,70,29.89,10.0,East,3.5,-,N/A,,Clear,90,2011-10-24 02:54:00
8:54 PM,62.1,52.0,70,29.90,10.0,Calm,Calm,-,N/A,,Clear,0,2011-10-24 03:54:00
9:54 PM,59.0,51.1,75,29.91,10.0,Calm,Calm,-,N/A,,Clear,0,2011-10-24 04:54:00
10:54 PM,55.9,50.0,80,29.91,10.0,Calm,Calm,-,N/A,,Clear,0,2011-10-24 05:54:00
11:54 PM,55.9,51.1,84,29.91,10.0,Calm,Calm,-,N/A,,Clear,0,2011-10-24 06:54:00